Weather History for KHCO - August, 2013

Change the Weather History Date:

Tuesday, August 20, 2013

  Actual Average Record
Temperature  
Mean Temperature 80 °F -  
Max Temperature 93 °F 80 °F 95 °F (1942)
Min Temperature 66 °F 53 °F 30 °F (2004)
Cooling Degree Days 14    
Growing Degree Days 30 (Base 50)    
Moisture  
Dew Point 67 °F    
Average Humidity 71    
Maximum Humidity 100    
Minimum Humidity 36    
Precipitation  
Precipitation 0.00 in - - ()
Sea Level Pressure  
Sea Level Pressure 29.70 in    
Wind  
Wind Speed 8 mph (South)    
Max Wind Speed 16 mph    
Max Gust Speed 29 mph    
Visibility 8 miles    
Events      
Averages and records for this station are not official NWS values.
T = Trace of Precipitation, MM = Missing Value Source: NWS Daily Summary

Daily Weather History Graph

Daily Weather History Graph

Search for Another Location

Airport or City:

Trip Planner

Search our weather history database for the weather conditions in past years. The results will help you decide how hot, cold, wet, or windy it might be!

Date:

Astronomy

Aug. 20, 2013 Rise Set
Actual Time 6:28 AM CDT 8:32 PM CDT
Civil Twilight 5:54 AM CDT 9:06 PM CDT
Nautical Twilight 5:11 AM CDT 9:49 PM CDT
Astronomical Twilight 4:23 AM CDT 10:36 PM CDT
Moon 7:59 PM CDT (8/20) 6:02 AM CDT (8/20)
Length of Visible Light 15h 12m
Length of Day
14h 04m
Full, 100% of the Moon is Illuminated
Aug 20
Full
Aug 20
Full
Aug 28
Last Quarter
Sep 5
New
Sep 12
First Quarter

Hourly Weather History & Observations

Time (CDT) Temp. Heat Index Dew Point Humidity Pressure Visibility Wind Dir Wind Speed Gust Speed Precip Events Conditions
12:13 AM 75.2 °F - 69.8 °F 83% 29.72 in 10.0 mi South 10.4 mph - N/A   Scattered Clouds
12:33 AM 75.2 °F - 69.8 °F 83% 29.72 in 10.0 mi South 10.4 mph 16.1 mph N/A   Scattered Clouds
12:53 AM 75.2 °F - 69.8 °F 83% 29.72 in 10.0 mi South 10.4 mph - N/A   Mostly Cloudy
1:13 AM 73.4 °F - 71.6 °F 94% 29.72 in 10.0 mi South 10.4 mph - N/A   Scattered Clouds
1:33 AM 73.4 °F - 71.6 °F 94% 29.73 in 10.0 mi South 9.2 mph 16.1 mph N/A   Scattered Clouds
1:53 AM 73.4 °F - 71.6 °F 94% 29.73 in 10.0 mi South 10.4 mph - N/A   Scattered Clouds
2:13 AM 73.4 °F - 71.6 °F 94% 29.72 in 10.0 mi South 9.2 mph - N/A   Scattered Clouds
2:33 AM 71.6 °F - 69.8 °F 94% 29.71 in 10.0 mi South 10.4 mph - N/A   Scattered Clouds
2:53 AM 71.6 °F - 71.6 °F 100% 29.70 in 7.0 mi South 11.5 mph - N/A   Clear
3:13 AM 71.6 °F - 71.6 °F 100% 29.71 in 7.0 mi South 10.4 mph - N/A   Clear
3:33 AM 71.6 °F - 71.6 °F 100% 29.71 in 7.0 mi SSW 8.1 mph - N/A   Clear
3:53 AM 71.6 °F - 69.8 °F 94% 29.71 in 7.0 mi South 4.6 mph - N/A   Clear
4:13 AM 71.6 °F - 69.8 °F 94% 29.71 in 7.0 mi SSW 5.8 mph - N/A   Clear
4:33 AM 71.6 °F - 69.8 °F 94% 29.71 in 7.0 mi South 8.1 mph - N/A   Clear
4:53 AM 69.8 °F - 69.8 °F 100% 29.71 in 5.0 mi South 5.8 mph - N/A   Clear
5:13 AM 69.8 °F - 68.0 °F 94% 29.72 in 4.0 mi South 4.6 mph - N/A   Clear
5:33 AM 68.0 °F - 68.0 °F 100% 29.72 in 3.0 mi South 6.9 mph - N/A   Clear
5:53 AM 66.2 °F - 66.2 °F 100% 29.72 in 3.0 mi South 5.8 mph - N/A   Clear
6:13 AM 66.2 °F - 66.2 °F 100% 29.72 in 3.0 mi SSE 6.9 mph - N/A   Clear
6:33 AM 66.2 °F - 66.2 °F 100% 29.73 in 1.8 mi SSE 4.6 mph - N/A   Mist
6:53 AM 66.2 °F - 64.4 °F 94% 29.73 in 1.5 mi South 5.8 mph - N/A   Mist
7:13 AM 66.2 °F - 64.4 °F 94% 29.74 in 1.5 mi South 3.5 mph - N/A   Mist
7:33 AM 66.2 °F - 66.2 °F 100% 29.74 in 1.8 mi South 3.5 mph - N/A   Mist
7:53 AM 69.8 °F - 68.0 °F 94% 29.74 in 2.0 mi South 4.6 mph - N/A   Clear
8:13 AM 69.8 °F - 69.8 °F 100% 29.74 in 4.0 mi South 3.5 mph - N/A   Clear
8:33 AM 71.6 °F - 69.8 °F 94% 29.75 in 5.0 mi South 5.8 mph - N/A   Clear
8:53 AM 71.6 °F - 69.8 °F 94% 29.75 in 7.0 mi SSW 3.5 mph - N/A   Clear
9:13 AM 73.4 °F - 71.6 °F 94% 29.75 in 7.0 mi Calm Calm - N/A   Clear
9:33 AM 75.2 °F - 71.6 °F 89% 29.74 in 10.0 mi Calm Calm - N/A   Clear
9:53 AM 77.0 °F - 69.8 °F 78% 29.75 in 10.0 mi South 3.5 mph - N/A   Clear
10:13 AM 78.8 °F - 71.6 °F 78% 29.75 in 10.0 mi Calm Calm - N/A   Clear
10:33 AM 78.8 °F - 69.8 °F 74% 29.75 in 10.0 mi Calm Calm - N/A   Clear
10:53 AM 80.6 °F 83.9 °F 69.8 °F 70% 29.75 in 10.0 mi Calm Calm - N/A   Clear
11:13 AM 80.6 °F 84.6 °F 71.6 °F 74% 29.75 in 10.0 mi Calm Calm - N/A   Clear
11:33 AM 82.4 °F 86.3 °F 69.8 °F 66% 29.75 in 10.0 mi South 3.5 mph - N/A   Clear
11:53 AM 84.2 °F 88.4 °F 69.8 °F 62% 29.74 in 10.0 mi South 4.6 mph - N/A   Clear
12:13 PM 84.2 °F 88.4 °F 69.8 °F 62% 29.74 in 10.0 mi South 4.6 mph - N/A   Clear
12:33 PM 86.0 °F 89.4 °F 68.0 °F 55% 29.73 in 10.0 mi South 6.9 mph - N/A   Clear
12:53 PM 87.8 °F 90.4 °F 66.2 °F 49% 29.74 in 10.0 mi South 4.6 mph - N/A   Clear
1:13 PM 87.8 °F 90.4 °F 66.2 °F 49% 29.74 in 10.0 mi South 5.8 mph - N/A   Clear
1:33 PM 89.6 °F 92.2 °F 66.2 °F 46% 29.73 in 10.0 mi South 5.8 mph - N/A   Clear
1:53 PM 89.6 °F 92.2 °F 66.2 °F 46% 29.72 in 10.0 mi SSW 6.9 mph - N/A   Clear
2:13 PM 91.4 °F 94.0 °F 66.2 °F 43% 29.71 in 10.0 mi SSE 4.6 mph - N/A   Clear
2:33 PM 91.4 °F 94.0 °F 66.2 °F 43% 29.70 in 10.0 mi SSE 9.2 mph - N/A   Clear
2:53 PM 91.4 °F 93.2 °F 64.4 °F 41% 29.68 in 10.0 mi SSE 10.4 mph - N/A   Clear
3:13 PM 91.4 °F 92.1 °F 62.6 °F 38% 29.67 in 10.0 mi South 9.2 mph - N/A   Clear
3:33 PM 91.4 °F 93.2 °F 64.4 °F 41% 29.67 in 10.0 mi South 10.4 mph - N/A   Clear
3:53 PM 91.4 °F 93.2 °F 64.4 °F 41% 29.67 in 10.0 mi South 10.4 mph - N/A   Clear
4:12 PM 93.2 °F 96.2 °F 66.2 °F 41% 29.67 in 10.0 mi South 8.1 mph - N/A   Clear
4:33 PM 93.2 °F 94.1 °F 62.6 °F 36% 29.66 in 10.0 mi South 11.5 mph - N/A   Clear
4:53 PM 93.2 °F 94.1 °F 62.6 °F 36% 29.66 in 10.0 mi South 9.2 mph - N/A   Clear
5:12 PM 93.2 °F 94.9 °F 64.4 °F 38% 29.65 in 10.0 mi SSE 8.1 mph - N/A   Clear
5:33 PM 93.2 °F 94.9 °F 64.4 °F 38% 29.64 in 10.0 mi South 6.9 mph - N/A   Clear
5:53 PM 91.4 °F 95.4 °F 68.0 °F 46% 29.64 in 10.0 mi South 9.2 mph - N/A   Clear
6:13 PM 91.4 °F 95.4 °F 68.0 °F 46% 29.63 in 10.0 mi South 8.1 mph - N/A   Clear
6:33 PM 91.4 °F 96.8 °F 69.8 °F 49% 29.62 in 10.0 mi South 5.8 mph - N/A   Clear
6:53 PM 89.6 °F 94.7 °F 69.8 °F 52% 29.62 in 10.0 mi South 5.8 mph - N/A   Clear
7:13 PM 87.8 °F 93.8 °F 71.6 °F 58% 29.61 in 10.0 mi South 5.8 mph - N/A   Clear
7:33 PM 87.8 °F 93.8 °F 71.6 °F 58% 29.60 in 10.0 mi South 6.9 mph - N/A   Clear
7:53 PM 86.0 °F 90.4 °F 69.8 °F 58% 29.60 in 10.0 mi South 6.9 mph - N/A   Clear
8:13 PM 84.2 °F 88.4 °F 69.8 °F 62% 29.60 in 10.0 mi South 9.2 mph - N/A   Clear
8:33 PM 82.4 °F 86.3 °F 69.8 °F 66% 29.60 in 10.0 mi South 11.5 mph - N/A   Clear
8:53 PM 82.4 °F 86.3 °F 69.8 °F 66% 29.61 in 10.0 mi SSW 11.5 mph - N/A   Clear
9:13 PM 82.4 °F 85.4 °F 68.0 °F 62% 29.62 in 10.0 mi SW 12.7 mph - N/A   Clear
9:33 PM 84.2 °F 86.6 °F 66.2 °F 55% 29.63 in 10.0 mi WSW 11.5 mph 17.3 mph N/A   Clear
9:53 PM 80.6 °F 82.7 °F 66.2 °F 61% 29.65 in 10.0 mi WNW 15.0 mph - N/A   Clear
10:13 PM 73.4 °F - 60.8 °F 65% 29.67 in 10.0 mi NW 15.0 mph - N/A   Clear
10:33 PM 71.6 °F - 55.4 °F 57% 29.70 in 10.0 mi NNW 16.1 mph 19.6 mph N/A   Clear
10:53 PM 71.6 °F - 55.4 °F 57% 29.71 in 10.0 mi NNW 16.1 mph 28.8 mph N/A   Clear
11:13 PM 69.8 °F - 55.4 °F 60% 29.72 in 10.0 mi North 12.7 mph 18.4 mph N/A   Clear
11:33 PM 68.0 °F - 57.2 °F 68% 29.73 in 10.0 mi NNW 12.7 mph 19.6 mph N/A   Clear
11:53 PM 66.2 °F - 57.2 °F 73% 29.75 in 10.0 mi NNW 11.5 mph 17.3 mph N/A   Clear